Klamath Falls, OR

12:31 PM PDT on September 28, 2016 (GMT -0700)
Klamath Falls International

Weather History for KLMT - December, 2012

Change the Weather History Date:

Saturday, December 22, 2012

  Actual Average Record
Temperature  
Mean Temperature 30 °F 29 °F  
Max Temperature 35 °F 38 °F 53 °F (1955)
Min Temperature 25 °F 20 °F -18 °F (1990)
Degree Days  
Heating Degree Days 35 36  
Month to date heating degree days 746 778  
Since 1 July heating degree days 2216 2580  
Cooling Degree Days 0 0  
Month to date cooling degree days 0 0  
Year to date cooling degree days 177 169  
Moisture  
Dew Point 29 °F    
Average Humidity 87    
Maximum Humidity 100    
Minimum Humidity 56    
Precipitation  
Precipitation 0.04 in 0.06 in 2.58 in (1964)
Month to date precipitation 1.46 1.06  
Year to date precipitation 9.57 14.57  
Snow  
Snow 0.00 in - - ()
Snow Depth 1.00 in    
Sea Level Pressure  
Sea Level Pressure 29.67 in    
Wind  
Wind Speed 11 mph (South)    
Max Wind Speed 24 mph    
Max Gust Speed 31 mph    
Visibility 6 miles    
Events Snow    
T = Trace of Precipitation, MM = Missing Value Source: NWS Daily Summary

Daily Weather History Graph

Daily Weather History Graph

Search for Another Location

Airport or City:

Trip Planner

Search our weather history database for the weather conditions in past years. The results will help you decide how hot, cold, wet, or windy it might be!

Date:

Astronomy

Dec. 22, 2012 Rise Set
Actual Time 7:32 AM PST 4:38 PM PST
Civil Twilight 7:00 AM PST 5:10 PM PST
Nautical Twilight 6:25 AM PST 5:46 PM PST
Astronomical Twilight 5:51 AM PST 6:20 PM PST
Moon 1:02 PM PST (12/22) 2:19 AM PST (12/22)
Length of Visible Light 10h 09m
Length of Day
9h 06m
Waxing Gibbous, 74% of the Moon is Illuminated
Dec 22
Waxing Gibbous
Dec 28
Full
Jan 4
Last Quarter
Jan 11
New
Jan 18
First Quarter

Hourly Weather History & Observations

Time (PST) Temp. Windchill Dew Point Humidity Pressure Visibility Wind Dir Wind Speed Gust Speed Precip Events Conditions
12:11 AM 32.0 °F 23.6 °F 30.2 °F 93% 29.66 in 1.8 mi SSE 10.4 mph - 0.00 in Snow Light Snow
12:15 AM 32.0 °F 23.6 °F 30.2 °F 93% 29.66 in 3.0 mi SSE 10.4 mph - 0.00 in Snow Light Snow
12:36 AM 32.0 °F 23.6 °F 30.2 °F 93% 29.65 in 2.0 mi SSE 10.4 mph - 0.00 in Snow Light Snow
1:03 AM 33.8 °F 24.3 °F 30.2 °F 87% 29.63 in 10.0 mi SSE 13.8 mph - 0.00 in   Scattered Clouds
1:53 AM 33.1 °F 23.0 °F 32.0 °F 96% 29.64 in 9.0 mi South 15.0 mph - 0.00 in   Overcast
2:14 AM 33.8 °F 25.3 °F 32.0 °F 93% 29.62 in 2.5 mi SSE 11.5 mph - 0.00 in Snow Light Snow
2:24 AM 33.8 °F 24.3 °F 32.0 °F 93% 29.60 in 3.0 mi SSE 13.8 mph - 0.00 in Snow Light Snow
2:43 AM 33.8 °F 23.2 °F 32.0 °F 93% 29.59 in 1.8 mi SSE 17.3 mph - 0.00 in Snow Light Snow
2:53 AM 33.1 °F 21.9 °F 32.0 °F 96% 29.62 in 2.0 mi SSE 18.4 mph - 0.00 in Snow Light Snow
3:01 AM 33.8 °F 23.2 °F 32.0 °F 93% 29.59 in 6.0 mi SSE 17.3 mph - 0.00 in Snow Light Snow
3:37 AM 32.0 °F 22.5 °F 32.0 °F 100% 29.58 in 4.0 mi SSE 12.7 mph - 0.00 in Snow Light Snow
3:50 AM 32.0 °F 20.8 °F 32.0 °F 100% 29.57 in 4.0 mi SSE 17.3 mph - 0.00 in Snow Light Snow
3:59 AM 33.8 °F 23.5 °F 32.0 °F 93% 29.56 in 2.0 mi SSE 16.1 mph - 0.00 in Snow Light Snow
4:04 AM 33.8 °F 23.2 °F 32.0 °F 93% 29.56 in 3.0 mi SSE 17.3 mph - 0.00 in Snow Light Snow
4:49 AM 33.8 °F 24.3 °F 32.0 °F 93% 29.54 in 10.0 mi South 13.8 mph 23.0 mph 0.00 in   Overcast
4:53 AM 33.1 °F 23.0 °F 32.0 °F 96% 29.56 in 10.0 mi SSE 15.0 mph - 0.00 in   Overcast
5:13 AM 33.8 °F 24.8 °F 32.0 °F 93% 29.54 in 10.0 mi South 12.7 mph - N/A   Overcast
5:28 AM 33.8 °F 22.8 °F 32.0 °F 93% 29.55 in 10.0 mi SSE 18.4 mph - N/A   Overcast
5:53 AM 34.0 °F 22.4 °F 30.9 °F 89% 29.59 in 10.0 mi South 20.7 mph 25.3 mph N/A   Overcast
6:02 AM 35.6 °F 25.5 °F 30.2 °F 81% 29.58 in 4.0 mi South 17.3 mph - 0.00 in Snow Light Snow
6:53 AM 34.0 °F 27.2 °F 30.9 °F 89% 29.61 in 4.0 mi SSW 8.1 mph - 0.00 in Snow Light Snow
7:16 AM 33.8 °F 27.7 °F 30.2 °F 87% 29.60 in 0.8 mi SW 6.9 mph - 0.01 in Snow Light Snow
7:38 AM 32.0 °F 26.4 °F 30.2 °F 93% 29.59 in 1.5 mi South 5.8 mph - 0.03 in Snow Light Snow
7:44 AM 32.0 °F 26.4 °F 30.2 °F 93% 29.59 in 3.0 mi South 5.8 mph - 0.03 in Snow Light Snow
7:53 AM 32.0 °F 25.6 °F 30.9 °F 96% 29.62 in 3.0 mi South 6.9 mph - 0.03 in Snow Light Snow
8:53 AM 33.1 °F 23.9 °F 30.0 °F 89% 29.65 in 3.0 mi SSW 12.7 mph - 0.00 in Snow Light Snow
9:01 AM 33.8 °F 24.3 °F 30.2 °F 87% 29.63 in 0.8 mi West 13.8 mph - 0.00 in Snow Light Snow
9:31 AM 30.2 °F 18.1 °F 28.4 °F 93% 29.65 in 1.0 mi WSW 18.4 mph 29.9 mph 0.01 in Snow Light Snow
9:37 AM 30.2 °F 17.8 °F 28.4 °F 93% 29.66 in 0.8 mi West 19.6 mph - 0.01 in Snow Light Snow
9:45 AM 32.0 °F 19.5 °F 26.6 °F 80% 29.66 in 1.0 mi West 21.9 mph 27.6 mph 0.01 in Snow Light Snow
9:53 AM 32.0 °F 20.8 °F 27.0 °F 82% 29.70 in 1.0 mi West 17.3 mph 28.8 mph 0.01 in Snow Light Snow
9:56 AM 30.2 °F 19.3 °F 26.6 °F 86% 29.66 in 3.0 mi West 15.0 mph 27.6 mph 0.00 in Snow Light Snow
10:11 AM 32.0 °F 23.6 °F 26.6 °F 80% 29.67 in 10.0 mi WSW 10.4 mph 20.7 mph 0.00 in   Scattered Clouds
10:53 AM 32.0 °F 25.6 °F 25.0 °F 75% 29.73 in 10.0 mi WSW 6.9 mph - 0.00 in   Scattered Clouds
11:09 AM 32.0 °F 22.1 °F 26.6 °F 80% 29.70 in 7.0 mi WSW 13.8 mph - 0.00 in Snow Light Snow
11:53 AM 32.0 °F 23.6 °F 27.0 °F 82% 29.74 in 9.0 mi WSW 10.4 mph - 0.00 in Snow Light Snow
12:18 PM 33.8 °F 28.6 °F 26.6 °F 75% 29.71 in 10.0 mi West 5.8 mph - 0.00 in   Scattered Clouds
12:53 PM 33.1 °F 26.9 °F 25.0 °F 72% 29.73 in 10.0 mi SSW 6.9 mph - 0.00 in   Scattered Clouds
1:53 PM 34.0 °F 27.2 °F 19.9 °F 56% 29.72 in 10.0 mi SW 8.1 mph - N/A   Scattered Clouds
2:53 PM 34.0 °F 26.6 °F 26.1 °F 73% 29.73 in 10.0 mi South 9.2 mph - N/A   Mostly Cloudy
3:53 PM 33.1 °F 23.9 °F 24.1 °F 70% 29.75 in 10.0 mi South 12.7 mph - N/A   Overcast
4:53 PM 30.0 °F 20.5 °F 23.0 °F 75% 29.77 in 10.0 mi SSW 11.5 mph - N/A   Overcast
5:53 PM 28.9 °F 23.9 °F 24.1 °F 82% 29.79 in 10.0 mi South 4.6 mph - N/A   Overcast
6:53 PM 30.0 °F 21.1 °F 26.1 °F 85% 29.81 in 7.0 mi South 10.4 mph - 0.00 in Snow Light Snow
7:53 PM 28.0 °F 20.0 °F 25.0 °F 88% 29.84 in 7.0 mi SSE 8.1 mph - 0.00 in Snow Light Snow
8:53 PM 27.0 °F 20.5 °F 25.0 °F 92% 29.86 in 9.0 mi SW 5.8 mph - 0.00 in Snow Light Snow
9:53 PM 28.0 °F 20.0 °F 23.0 °F 81% 29.88 in 9.0 mi South 8.1 mph - 0.00 in   Overcast
10:53 PM 26.1 °F 17.6 °F 21.9 °F 84% 29.89 in 10.0 mi South 8.1 mph - N/A   Mostly Cloudy
11:53 PM 28.9 °F 22.8 °F 24.1 °F 82% 29.88 in 10.0 mi SSE 5.8 mph - N/A   Overcast